Location: Unspecified
(0.0000°N, 0.0000°E)
Time: 04:10:21
(UTC+00:00)

A-11 Canister half - Pass Details

Date: 20 April 2026
Orbit: 1523 x 1685 km, 47.3° (Epoch: 13 May)

Event Time Altitude Azimuth Distance (km) Brightness Sun altitude
Rises 07:28:57 0° 336° (NNW) 4,882 11.5 22.0°
Reaches altitude 10° 07:32:27 10° 343° (NNW) 3,877 11.1 22.9°
Maximum altitude 07:41:27 39° 49° (NE) 2,235 11.2 25.1°
Drops below altitude 10° 07:50:10 10° 115° (ESE) 3,768 12.0 27.2°
Sets 07:53:28 0° 122° (ESE) 4,732 12.2 28.0°
